DMSP 5D-2 F13 DEB

Satellite information

Favourite Embed

Satellite Type and Status

DEBRISIN ORBIT

Key statistics

Satellite DMSP 5D-2 F13 DEB at a glance.

Uptime

11223

Days in orbit

Revolutions

≈ 14.2

Per day

Orbit

SSO

Sun Synchronous Orbit

Inclination

98.8

Latest

Satellite identification and parameters

Extended collection of information and parameters for DMSP 5D-2 F13 DEB.

Object identification

Identified? True

Debris? True

Object name: DMSP 5D-2 F13 DEB

International designator: 1995-015JR

Object number (NORAD): 42323

Object ID (CCSDS): 42323

Country: UNITED STATES OF AMERICA (US)

Current information (Y/N): Y

RCS size: SMALL

Orbital parameters

Period: 101.59 minutes

Inclination: 98.8303 deg

SMA: 7212.105 km

Apoapsis: 835.812 km

Periapsis: 832.128 km

RAAN: 356.091 deg

Eccentricy: 0.0002554

Argument of periapsis: 183.443 deg

Mean anomaly: 176.6728 deg

Mean motion: 14.17456268 rev/day

Mean motion (dot): 0.00000681 rev/day2

B* drag term: 0.00035768 1/REarth

Two-line elements (TLE)

Creation date: Dec. 10, 2025, 3:06 p.m.

Reference frame: TEME

Reference center: EARTH

Epoch: Dec. 10, 2025, 6:17 a.m. UTC

TLE line 0: 0 DMSP 5D-2 F13 DEB

TLE line 1: 1 42323U 95015JR 25344.26199656 .00000681 00000-0 35768-3 0 9993

TLE line 2: 2 42323 98.8303 356.0910 0002554 183.4430 176.6728 14.17456268525924

Live tracking on map

Real-time ground track for satellite DMSP 5D-2 F13 DEB.

In-orbit conjunctions

A list of the most updated potential collisions computed for object DMSP 5D-2 F13 DEB.

Target Orbit TCA Probability of collision Miss distance Type
EXPLORER 30 LEO 2025-09-05 15:45:14 0.0001977002 304.0 (m) PAYLOAD
FENGYUN 1C DEB SSO 2024-11-06 01:28:53 0.0001017046 126.0 (m) DEBRIS

Associated space launch

Military meteorological satellite

DMSP 5D-2 F13 DEB was lifted into orbit during the mission ‘Atlas E | DMSP-5D2 F13’, on board a Atlas E space rocket.

The launch took place on March 24, 1995, 2:05 p.m. from Space Launch Complex 3W.

For more information about the launch, click the button.

Launch to space Atlas E | DMSP-5D2 F13
Atlas E | DMSP-5D2 F13

Agency: N/A

Status: Launch Successful

Launch date: March 24, 1995, 2:05 p.m. UTC

Rocket: Atlas E

Launch pad: Space Launch Complex 3W

Location: Vandenberg SFB, CA, USA

...

Latest news about this satellite

There are no fresh news available about this satellite. Check back as we update our databases every day.


Newsletter sign-up

Weekly statistics, charts and insights to help you stay on top of the space industry.